Weather Roundup
Issued by NWS

Home | Current Version | Previous Version | Graphics & Text | Print | Product List | Glossary Off
Versions: 1 2 3 4 5 6 7 8 9 10 11 12 13 14 15 16 17 18 19 20 21 22 23 24 25 26 27 28 29 30 31 32 33 34 35 36 37 38 39 40 41 42 43 44 45 46 47 48 49 50

000
NZUS93 KARX 181610
HRRWXR

CURRENT HOURLY OBSERVATIONS ACROSS
MUCH OF THE UPPER MISSISSIPPI VALLEY
NATIONAL WEATHER SERVICE LA CROSSE WI
1000 AM CST THU DEC 18 2014


...SOUTHEAST MINNESOTA...


CITY           SKY/WX    TMP DP  RH WIND       PRES   REMARKS
ROCHESTER      CLOUDY    18  14  84 SE6       30.29R WCI  10
ROCHESTER/MAYO CLOUDY    18  13  80 E5        30.30R WCI  11
WINONA         CLOUDY    23  18  80 CALM      30.33S
AUSTIN         LGT SNOW  18  14  86 CALM      30.28S
ALBERT LEA     MOSUNNY   18  16  93 S3        30.28S FOG
DODGE CENTER   FLURRIES  16  12  86 CALM      30.28R
PRESTON        CLOUDY    17  14  88 CALM      30.29R
OWATONNA       PTSUNNY   18  12  79 SE3       30.29R
FARIBAULT      CLOUDY    18  12  79 CALM      30.30S
$$

...ELSEWHERE IN MINNESOTA...


CITY           SKY/WX    TMP DP  RH WIND       PRES   REMARKS
MINNEAPOLIS    LGT SNOW  17  13  84 SW3       30.32R FOG
INTNL FALLS    SUNNY     10   5  80 SE5       30.29F WCI   2
DULUTH         CLOUDY    21  16  81 N3        30.26S
RED WING       CLOUDY    19  16  86 CALM      30.32R
REDWOOD FALLS  MOSUNNY   13  10  88 CALM      30.29F
MANKATO        PTSUNNY   16  10  79 S3        30.30R
WORTHINGTON    CLOUDY    18  18 100 S5        30.24S WCI  11
FAIRMONT       PTSUNNY   18  12  79 SE5       30.27S WCI  11
$$

...SOUTHWEST WISCONSIN...


CITY           SKY/WX    TMP DP  RH WIND       PRES   REMARKS
LA CROSSE      CLOUDY    24  17  74 CALM      30.32R
PRAIRIE DU CHI PTSUNNY   20  15  79 CALM      30.33R
BOSCOBEL       CLOUDY    21  17  84 CALM      30.33R
LONE ROCK      NOT AVBL
PLATTEVILLE    SUNNY     20  17  86 CALM      30.31R
FORT MC COY    CLOUDY    22  18  83 CALM      30.32S
CAMP DOUGLAS   FLURRIES  23  23 100 NW2       30.30R
VIROQUA        CLOUDY    22  19  90 E7        30.27S WCI  13
WIS DELLS      CLOUDY    23  18  82 CALM      30.29S
$$

...ELSEWHERE IN WISCONSIN...


CITY           SKY/WX    TMP DP  RH WIND       PRES   REMARKS
MILWAUKEE      CLOUDY    26  20  77 NW8       30.28S WCI  18
MADISON        FLURRIES  24  19  81 CALM      30.30R
GREEN BAY      CLOUDY    28  21  75 N9        30.29R WCI  19
EAU CLAIRE     CLOUDY    23  17  78 E5        30.30R WCI  17
BLACK RVR FLS  CLOUDY    23  19  86 CALM      30.30S
MEDFORD        CLOUDY    22  18  84 E3        30.26S
WAUSAU         CLOUDY    24  19  81 E7        30.27R WCI  16
WIS RAPIDS     CLOUDY    25  19  78 CALM      30.30R
MARSHFIELD     CLOUDY    24  19  81 E5        30.27R WCI  18
RICE LAKE      CLOUDY    23  19  84 CALM      30.30S
$$

...NORTHEAST IOWA...


CITY           SKY/WX    TMP DP  RH WIND       PRES   REMARKS
DECORAH        CLOUDY    18  14  86 CALM      30.29R
MASON CITY     CLOUDY    18  15  88 CALM      30.29F
CHARLES CITY   CLOUDY    18  16  93 CALM      30.30S
OELWEIN        MOSUNNY   19  14  79 CALM      30.30S
$$

...ELSEWHERE IN IOWA...


CITY           SKY/WX    TMP DP  RH WIND       PRES   REMARKS
DES MOINES     CLOUDY    24  17  74 VRB3      30.29S
IOWA CITY      CLOUDY    22  17  81 CALM      30.33R
FORT DODGE     CLOUDY    21  16  79 CALM      30.28S
$$

...NORTHERN ILLINOIS...


CITY           SKY/WX    TMP DP  RH WIND       PRES   REMARKS
CHICAGO-OHARE  PTSUNNY   23  16  74 W6        30.30R WCI  16
CHICAGO-MIDWAY CLOUDY    26  17  68 W3        30.31S
MOLINE         CLOUDY    24  18  77 CALM      30.32R
ROCKFORD       CLOUDY    22  15  75 W6        30.34R WCI  14
PEORIA         CLOUDY    25  19  78 CALM      30.32S
$$

NOTE: "FAIR" INDICATES FEW OR NO CLOUDS BELOW 12,000 FEET WITH NO
SIGNIFICANT WEATHER AND/OR OBSTRUCTIONS TO VISIBILITY. WIND
SPEEDS ARE IN MILES-PER-HOUR.



USA.gov is the U.S. government's official web portal to all federal, state and local government web resources and services.